Total_Precipitation_Accumulation
2.02 2.30 2.66 3.03 3.24 3.41 3.52 3.82 4.04 3.78 3.33 2.94 2.48 2.30 2.24 2.01 1.82 1.73 1.59 1.67 1.60 1.77 1.97 1.73 2.00 1.78 1.79 1.90 1.95 2.12 2.09 1.92 1.89 2.23 2.33 1.84 1.45 1.49 1.38 1.33 1.53 1.55 1.61
1.60 1.72 1.90 2.22 2.37 2.58 2.89 3.23 3.45 3.29 2.75 2.54 2.37 2.25 2.19 2.01 1.97 1.89 1.85 1.63 1.58 1.68 1.60 1.94 1.80 1.83 1.97 2.01 2.09 2.21 2.20 1.97 1.92 2.29 2.66 2.30 2.22 1.94 1.21 1.25 1.42 1.52 1.76
1.32 1.40 1.44 1.56 1.89 2.43 2.61 2.50 2.72 2.89 2.62 2.53 2.46 2.36 2.29 2.08 2.14 2.07 1.96 1.62 1.46 1.47 1.53 1.59 1.65 1.89 1.73 2.05 2.29 2.25 2.31 2.28 2.09 2.14 2.54 2.57 2.48 2.07 1.60 1.27 1.25 1.47 1.84
0.92 1.06 1.09 1.19 1.39 1.68 1.98 2.24 2.51 2.66 2.56 2.42 2.21 2.06 1.87 1.78 1.80 1.81 1.81 1.68 1.56 1.41 1.42 1.46 1.66 1.87 1.70 2.17 1.87 2.02 2.22 2.36 2.17 2.08 1.95 2.02 2.20 2.32 2.15 1.74 1.37 1.38 1.56
0.53 0.71 0.83 0.94 0.99 1.17 1.57 2.03 2.42 2.69 2.54 2.22 2.04 2.05 1.92 1.86 1.78 1.72 1.93 1.80 1.70 1.53 1.36 1.50 1.67 1.74 1.70 1.89 1.99 2.28 2.16 2.10 2.07 2.10 2.13 2.18 2.10 1.90 2.06 2.06 1.84 1.66 1.31
0.38 0.50 0.58 0.71 0.83 0.97 1.24 1.61 1.96 2.21 2.22 2.07 1.98 2.02 2.05 2.03 1.87 1.69 1.71 1.59 1.58 1.54 1.46 1.56 1.72 1.68 1.67 1.82 1.90 2.06 2.06 2.12 2.18 2.03 1.94 2.09 2.05 1.94 1.99 1.80 1.69 1.68 1.25
0.36 0.49 0.54 0.64 0.70 0.75 0.95 1.25 1.47 1.63 1.84 1.94 1.94 1.90 2.02 2.05 1.85 1.64 1.62 1.60 1.46 1.41 1.44 1.57 1.81 1.75 1.80 1.83 2.00 2.03 1.98 2.04 2.08 1.94 1.79 1.75 1.66 1.75 1.87 1.95 1.71 1.53 1.17
0.33 0.45 0.54 0.59 0.60 0.61 0.78 0.97 1.16 1.38 1.62 1.79 1.86 1.85 1.80 1.68 1.63 1.72 1.63 1.60 1.57 1.51 1.45 1.56 1.61 1.64 1.74 1.79 2.19 1.97 1.87 1.93 1.90 1.71 1.92 1.82 1.53 1.59 1.71 1.92 2.11 1.90 1.56
0.41 0.47 0.61 0.67 0.58 0.61 0.74 0.80 0.98 1.17 1.34 1.58 1.74 1.69 1.69 1.56 1.55 1.61 1.55 1.50 1.63 1.62 1.55 1.50 1.52 1.61 1.76 1.93 2.11 2.00 2.01 2.08 1.85 1.75 1.91 1.78 1.59 1.56 1.52 1.77 2.13 2.37 2.13
0.52 0.60 0.64 0.68 0.63 0.64 0.76 0.83 0.97 1.07 1.13 1.29 1.38 1.30 1.50 1.53 1.66 1.63 1.54 1.47 1.47 1.52 1.58 1.62 1.60 1.69 1.79 1.97 2.11 2.11 2.22 2.26 2.08 1.96 1.94 1.82 1.65 1.73 1.57 1.63 1.93 2.18 2.32
0.61 0.66 0.64 0.67 0.63 0.67 0.72 0.74 0.89 1.00 1.04 1.20 1.26 1.32 1.41 1.48 1.56 1.57 1.56 1.55 1.55 1.58 1.60 1.68 1.72 1.74 1.79 1.97 2.09 1.99 2.22 2.31 2.32 2.11 2.03 1.96 1.94 1.93 1.78 1.80 1.91 1.99 2.20
0.48 0.63 0.70 0.76 0.58 0.63 0.70 0.73 0.79 0.87 0.95 1.15 1.32 1.40 1.52 1.56 1.51 1.50 1.68 1.73 1.71 1.70 1.71 1.77 1.88 1.86 1.89 2.00 1.97 1.85 1.94 2.09 2.26 2.46 2.54 2.30 2.22 2.18 2.01 1.97 1.93 1.96 2.14
0.48 0.61 0.75 0.68 0.59 0.61 0.69 0.73 0.81 0.90 0.96 1.09 1.27 1.48 1.55 1.60 1.67 1.79 1.94 2.04 1.98 1.95 1.96 2.02 1.98 2.00 2.04 2.02 1.93 1.94 1.97 2.04 2.12 2.34 2.55 2.53 2.63 2.38 2.32 2.20 2.08 2.02 1.98
0.46 0.52 0.71 0.74 0.65 0.63 0.68 0.73 0.85 0.98 1.14 1.37 1.49 1.60 1.78 1.89 1.94 1.92 2.02 2.06 2.09 2.13 2.13 2.17 2.11 2.09 2.12 2.11 2.09 2.07 2.04 2.10 2.09 2.11 2.21 2.32 2.58 2.56 2.55 2.35 2.31 2.31 2.28
0.52 0.66 0.79 0.93 0.92 0.85 0.78 0.83 1.05 1.24 1.46 1.71 1.79 1.81 1.88 1.98 2.11 2.25 2.29 2.29 2.29 2.24 2.38 2.35 2.26 2.24 2.25 2.09 2.20 2.38 2.35 2.41 2.23 2.14 2.10 2.08 2.30 2.37 2.37 2.14 2.22 2.37 2.41
0.67 0.80 0.95 1.06 1.16 1.20 1.18 1.22 1.37 1.62 1.89 2.18 2.31 2.43 2.49 2.55 2.60 2.64 2.66 2.70 2.66 2.60 2.52 2.40 2.42 2.41 2.20 2.33 2.38 2.29 2.34 2.51 2.51 2.39 2.31 2.17 2.10 2.09 2.13 2.16 2.19 2.27 2.25
0.83 0.94 1.05 1.12 1.25 1.31 1.39 1.55 1.72 1.95 2.15 2.32 2.43 2.57 2.68 2.80 2.90 2.92 2.91 2.79 2.73 2.64 2.51 2.51 2.55 2.50 2.53 2.49 2.25 2.10 2.11 2.17 2.26 2.33 2.31 2.05 1.90 2.06 1.98 2.13 2.15 2.00 1.93
0.97 1.01 1.07 1.17 1.24 1.38 1.55 1.71 1.81 1.95 2.25 2.43 2.49 2.56 2.62 2.72 2.86 3.02 2.95 2.79 2.71 2.65 2.59 2.55 2.44 2.37 2.29 2.29 2.07 2.05 1.95 1.90 1.85 1.95 2.06 2.00 1.91 1.92 1.99 1.93 1.72 1.57 1.56
0.97 1.03 1.13 1.23 1.34 1.40 1.46 1.49 1.57 1.74 1.96 2.18 2.33 2.33 2.45 2.65 2.75 2.79 2.80 2.83 2.77 2.58 2.44 2.32 2.26 2.21 2.25 2.41 2.17 2.05 1.88 1.88 1.75 1.73 1.73 1.76 1.66 1.75 1.82 1.72 1.52 1.40 1.34
0.98 1.09 1.22 1.28 1.28 1.30 1.32 1.39 1.53 1.75 1.95 2.17 2.35 2.49 2.58 2.73 2.78 2.83 2.92 2.93 2.86 2.81 2.76 2.60 2.46 2.35 2.32 2.48 2.22 2.04 1.86 1.88 1.83 1.82 1.81 1.89 1.68 1.59 1.51 1.45 1.45 1.27 1.17
0.96 1.06 1.21 1.35 1.35 1.36 1.50 1.62 1.75 1.91 2.08 2.20 2.28 2.39 2.54 2.69 2.91 3.10 3.04 3.00 2.94 2.83 2.63 2.44 2.30 2.25 2.24 2.22 1.99 1.84 1.65 1.65 1.70 1.61 1.56 1.61 1.63 1.43 1.26 1.25 1.23 1.16 1.17
0.86 1.04 1.17 1.31 1.45 1.57 1.72 1.84 1.87 1.93 2.08 2.27 2.34 2.39 2.54 2.59 2.67 2.81 2.79 2.73 2.72 2.70 2.62 2.56 2.48 2.38 2.22 2.00 1.76 1.61 1.50 1.52 1.54 1.63 1.65 1.69 1.72 1.47 1.31 1.16 1.05 1.07 1.03
0.94 1.05 1.17 1.30 1.39 1.57 1.76 1.90 1.99 2.06 2.14 2.24 2.36 2.50 2.57 2.60 2.70 2.82 2.83 2.74 2.64 2.57 2.46 2.38 2.20 2.17 2.19 2.10 1.84 1.59 1.48 1.47 1.43 1.63 1.92 1.93 1.86 1.65 1.37 1.26 1.25 1.14 1.00
1.14 1.17 1.25 1.32 1.40 1.49 1.66 1.86 1.98 2.02 2.13 2.19 2.24 2.37 2.50 2.61 2.74 2.75 2.64 2.50 2.33 2.24 2.17 2.08 1.98 1.96 2.01 1.90 1.82 1.69 1.59 1.56 1.49 1.56 1.82 1.95 1.96 1.85 1.66 1.56 1.45 1.22 1.12
1.20 1.23 1.30 1.37 1.42 1.48 1.56 1.78 1.98 2.04 2.05 2.15 2.20 2.18 2.21 2.28 2.40 2.45 2.41 2.28 2.15 2.04 1.97 1.86 1.84 1.83 1.82 1.83 1.83 1.67 1.55 1.50 1.55 1.67 1.88 2.02 2.12 2.13 2.05 1.94 1.83 1.68 1.50
1.30 1.29 1.31 1.35 1.40 1.50 1.61 1.68 1.92 2.16 2.22 2.19 2.06 1.96 1.88 1.87 1.90 1.90 1.96 2.09 1.97 1.96 1.83 1.71 1.64 1.60 1.64 1.66 1.61 1.50 1.42 1.46 1.57 1.62 1.74 1.97 2.15 2.21 2.29 2.31 2.20 1.98 1.78